www.pogodaiklimat.ru

Погода и климат >> Архив погоды >> Россия >> Адыгея >> Майкоп


ПОГОДА в Майкопе

АРХИВ ПОГОДЫ в Майкопе

Время (UTC), дата Ветер
(напр.,м/с)
 
Видим.   Явления Облачность Т
(С)
Тd
(С)
f
(%)
Тe
(С)
Тes
(С)
Комфортность P
(гПа)
Po
(гПа)
Тmin
(С)
Tmax
(С)
R
(мм)
R24
(мм)
S
(см)
18 16.07 ЮЗ 2 20 км ясно +19.5 +13.4 68 +22 +22 комфорт 1010.6 985.3
21 16.07 Ю 1 20 км ясно +14.9 +12.7 87 +15 +15 холодно 1010.9 985.2
00 17.07 Ю 3 20 км ясно +15.4 +12.3 82 +15 +15 прохладно 1010.6 984.9
03 17.07 ЮВ 3 20 км ясно +15.6 +11.7 78 +15 +16 холодно 1010.6 985.0 +14.0
06 17.07 С 1 20 км 3/0
[Ci sp]
+23.9 +12.5 49 +26 +37 жарко 1009.4 984.5
09 17.07 СВ 2 20 км 3/0
[Ci sp]
+26.7 +12.0 40 +28 +45 жарко 1007.9 983.3
12 17.07 С 3 20 км 6/3 1000 м
[Cu med, cong Ci sp]
+29.0 +12.1 35 +30 +37 жарко 1006.8 982.4
15 17.07 С 2 20 км 8/3 1000 м
[Sc Ac trans]
+26.4 +12.6 42 +28 +29 жарко 1006.7 982.1 +29.1
18 17.07 В 1 20 км 9/5 1000 м
[Sc Ac trans]
+20.0 +14.3 70 +23 +23 комфорт 1007.0 981.8
21 17.07 СВ 1 20 км 9/0
[Ac trans]
+19.2 +16.0 82 +22 +22 комфорт 1006.3 981.2
00 18.07 ЮВ 1 20 км 9/0
[Ac trans]
+18.6 +14.7 78 +20 +20 тепло 1006.3 981.0
03 18.07 Ю 1 20 км 10/4 1000 м
[Sc Ac As]
+18.1 +15.4 84 +19 +20 прохладно 1006.7 981.4 +17.4
06 18.07 ЮВ 1 10 км гроза, ливневой дождь 10/8 600 м
[Cb cap Ac As]
+17.0 +16.5 97 +18 +19 холодно 1007.0 981.6 +16.7
09 18.07 В 2 10 км слаб. ливневой дождь, в посл. час гроза 10/8 1000 м
[Cb cap Ac As]
+18.1 +17.0 93 +19 +20 очень
холодно
1007.7 982.4
12 18.07 С 1 20 км {гроза, ливн. осадки} 8/3 1000 м
[Cu med, cong Ac trans Ci sp]
+24.5 +17.0 63 +28 +35 душно 1008.1 983.3
15 18.07 СВ 3 20 км 9/4 1000 м
[Sc Ci sp]
+24.2 +17.5 66 +28 +29 душно 1009.1 984.3 +24.8 8
18 18.07 С 1 20 км 9/4 1000 м
[Sc Ac trans]
+20.8 +18.2 85 +26 +26 душно 1010.6 985.5
21 18.07 В 2 10 км гроза, ливневой дождь 10/8 600 м
[Cb cap Ac As]
+19.2 +18.9 98 +22 +22 комфорт 1011.7 986.4
00 19.07 штиль 0 4000 м в посл. час гроза {ливн. осадки} 9/6 600 м
[Sc Ac trans]
+17.1 +17.0 99 +17 +17 по сезону 1012.6 987.1
03 19.07 штиль 0 4000 м дымка 9/4 1000 м
[Sc Ac trans]
+17.8 +17.7 99 +18 +18 прохладно 1013.8 988.3 +16.4 6
06 19.07 СВ 1 4000 м дымка 10/10 300 м
[St]
+19.5 +19.3 99 +23 +23 комфорт 1014.5 989.2
09 19.07 С 2 20 км 9/4 600 м
[Sc Ac trans Ci sp]
+24.5 +18.1 68 +29 +35 душно 1014.2 989.3
12 19.07 С 2 20 км гроза без осадков 10/6 600 м
[Cb calv Ac und]
+24.3 +17.4 65 +28 +30 душно 1014.5 989.5
15 19.07 Ю 2 10 км слаб. ливневой дождь {гроза} 10/8 600 м
[Cb cap Ac und]
+21.0 +20.3 96 +27 +27 душно 1015.7 990.5 +26.2 5
18 19.07 Ю 1 20 км {гроза, ливн. осадки} 10/6 1000 м
[Sc Ac und]
+19.4 +17.8 90 +23 +23 комфорт 1016.8 991.4
21 19.07 Ю 1 20 км 4/0
[Ac trans Ci sp]
+18.3 +17.5 95 +20 +20 по сезону 1017.4 991.9
00 20.07 Ю 1 20 км ясно +17.2 +16.4 95 +18 +18 по сезону 1018.0 992.3
03 20.07 Ю 1 20 км ясно +17.3 +15.8 91 +18 +19 прохладно 1018.8 993.1 +16.6 0.3
06 20.07 Ю 1 20 км ясно +23.1 +15.6 63 +27 +39 душно 1018.1 992.9
09 20.07 СВ 3 20 км 3/3 1000 м
[Sc]
+28.4 +17.5 52 +33 +43 очень
душно
1016.7 992.0
12 20.07 СВ 3 20 км 3/3 1000 м
[Cu med, cong]
+28.7 +16.6 48 +32 +40 душно 1016.0 991.4
15 20.07 СВ 3 20 км 3/1 1000 м
[Sc Ac trans]
+29.4 +16.5 46 +33 +34 душно 1015.1 990.5 +30.2
18 20.07 СВ 1 20 км 6/0
[Ac trans]
+23.0 +18.1 74 +29 +29 очень
душно
1015.6 990.5
21 20.07 В 1 20 км 8/0
[Ac trans]
+22.4 +17.3 73 +27 +27 душно 1015.4 990.3
00 21.07 В 1 20 км {ливн. осадки} 6/0
[Ac trans]
+20.6 +17.7 83 +25 +25 комфорт 1015.0 989.7
03 21.07 СВ 1 10 км слаб. ливневой дождь 9/4 1000 м
[Cb cap Ac trans Ci sp]
+20.1 +17.8 87 +24 +25 комфорт 1014.9 989.6 +19.5 0.1
06 21.07 штиль 0 10 км гроза, ливневой дождь 9/8 600 м
[Cb cap Ac As]
+21.6 +20.0 91 +27 +29 душно 1015.0 989.9
09 21.07 С 2 20 км {гроза, ливн. осадки} 9/5 1000 м
[Sc diur, vesp Ac As]
+25.5 +19.5 69 +31 +35 очень
душно
1013.9 989.1
12 21.07 СЗ 2 20 км {гроза, ливн. осадки} 10/6 1000 м
[Sc Ac und]
+23.5 +20.1 81 +29 +30 душно 1014.2 989.2
15 21.07 З 3 20 км гроза без осадков 10/8 600 м
[Cb cap Ac und]
+20.9 +18.5 86 +26 +26 душно 1014.9 989.7 +25.9 3
18 21.07 ЮЗ 1 20 км в посл. час ливневой дождь {гроза} 10/8 600 м
[Cb cap Ac und]
+18.9 +16.9 88 +21 +21 комфорт 1017.0 991.5
21 21.07 штиль 0 10 км в посл. час ливневой дождь 10/8 600 м
[Cb cap Ac und]
+18.2 +17.7 97 +19 +19 прохладно 1017.9 992.4
00 22.07 Ю 1 20 км {ливн. осадки} 10/5 1000 м
[Sc diur, vesp Ac und]
+18.5 +16.0 85 +20 +20 тепло 1016.2 990.7
03 22.07 СВ 2 10 км 10/8 600 м
[Sc diur, vesp Ac und]
+17.6 +17.0 96 +18 +18 прохладно 1017.3 991.7 +17.4 0.4
06 22.07 СВ 3 20 км 10/8 600 м
[Sc Ac und]
+19.3 +16.4 83 +21 +22 комфорт 1017.2 991.7
09 22.07 В 4 20 км 9/8 1000 м
[Sc Ac trans]
+21.8 +15.9 69 +25 +27 комфорт 1016.3 991.0
12 22.07 СВ 3 20 км 6/5 1000 м
[Sc Ac trans]
+25.2 +15.9 56 +28 +33 жарко 1015.6 990.7
15 22.07 В 2 20 км 6/3 1000 м
[Sc Ac trans Ci sp]
+23.8 +16.0 62 +27 +28 жарко 1015.5 990.5 +25.2
18 22.07 В 1 20 км 4/0
[Ac trans Ci sp]
+19.7 +16.0 79 +23 +23 комфорт 1015.5 990.1
21 22.07 В 2 20 км 8/0
[Ac trans Ci sp]
+18.2 +16.4 89 +19 +19 прохладно 1014.7 989.2
00 23.07 В 2 20 км ясно +17.3 +16.4 94 +18 +18 по сезону 1013.8 988.2
03 23.07 СВ 1 20 км 9/0
[Ac trans]
+17.9 +15.9 88 +19 +19 прохладно 1013.3 987.8 +15.9
06 23.07 СВ 3 20 км 9/3 1000 м
[Sc Ac trans]
+22.7 +16.3 67 +27 +30 душно 1012.0 987.0
09 23.07 СВ 3 20 км 8/3 1000 м
[Cu hum Ac trans]
+26.9 +15.7 50 +30 +36 душно 1010.6 986.0
12 23.07 СВ 3 20 км 8/4 1000 м
[Cu hum Ac trans]
+29.4 +15.5 43 +32 +36 душно 1009.4 985.0
15 23.07 В 3 20 км 8/3 1000 м
[Sc Ac trans]
+26.9 +16.1 52 +30 +31 душно 1009.2 984.5 +29.4

 

Местоположение метеостанции Майкоп (Адыгея, Россия): широта 44.62 долгота 40.08 высота над уровнем моря 216 м.

В архиве по умолчанию представлена погода в Майкопе за последнюю неделю. Архивные данные за месяц целиком и за предыдущие месяцы, начиная с января 2011 года, Вы можете получить, выбрав интересующий диапазон дат из раскрывающегося списка и нажав кнопку "Ввод!".


*Определитесь, кто Вы:
робот инопланетянин человек

Внимание! Время в таблицах - всемирное. Для получения местного времени необходимо прибавить поправку, которая равна 3 ч.

Смотрите также архив погоды в соседних городах и на ближайших метеорологических станциях:

Погода в Шунтуке (Адыгея, Россия) (17 км)
Погода в Белореченске (Краснодарский край, Россия) (20 км)
Погода в Дондуковской (Адыгея, Россия) (34 км)
Погода в Лабинске (Краснодарский край, Россия) (53 км)
Погода в Даховской (Адыгея, Россия) (53 км)
Погода в Гузерипле (Адыгея, Россия) (69 км)
Погода в Усть-Лабинске (Краснодарский край, Россия) (73 км)
Погода в Горном (Краснодарский край, Россия) (75 км)
Погода в Горячем Ключе (Краснодарский край, Россия) (78 км)
Погода в Псебае (Краснодарский край, Россия) (78 км)

Пояснения к столбцам:

Ветер - указаны скорость ветра в м/с - средняя за 10 мин, порывы в срок и между сроками (в фигурных скобках) и направление, откуда дует ветер: С - северный, СВ - северо-восточный, В - восточный, ЮВ - юго-восточный, Ю - южный, ЮЗ - юго-западный, З - западный, СЗ - северо-западный.
Видимость - горизонтальная дальность видимости в метрах или километрах. При видимости от 1 до 10 км при отсутствии осадков обычно наблюдается дымка, при ухудшении видимости до 1 км и менее - туман. В сухую погоду видимость может ухудшаться дымом, пылью или мглою.
Явления - указаны атмосферные явления, наблюдавшиеся в срок или в последний час перед сроком; фигурными скобками обозначены явления, наблюдавшиеся между сроками (за 1-3 часа до срока); квадратными скобками обозначены град или гололедные отложения с указанием их диаметра в мм.
Облачность - указаны через наклонную черту общая и нижняя облачность в баллах и высота нижней границы облаков в метрах; квадратными скобками обозначены формы облаков: Ci - перистые, Cs - перисто-слоистые, Cc - перисто-кучевые, Ac - высококучевые, As - высокослоистые, Sc - слоисто-кучевые, Ns - слоисто-дождевые, Cu - кучевые, Cb - кучево-дождевые. Подробнее классификацию облаков см. в Атласе облаков (PDF).
T - Температура воздуха - температура, измеренная на высоте 2 м над землей.
Td - Температура точки росы - температура, при понижении до которой содержащийся в воздухе водяной пар достигнет насыщения.
f - Относительная влажность воздуха - влажноcть воздуха, измеренная на высоте 2 м над землей.
Te - Эффективная температура - температура, которую ощущает одетый по сезону человек в тени. Характеристика душности погоды. При расчете учитывается влияние влажности воздуха и скорости ветра на теплоощущения человека.
Tes - Эффективная температура на солнце - температура, которую ощущает человек, с поправкой на солнечный нагрев. Характеристика знойности погоды. Зависит от высоты солнца над горизонтом, облачности и скорости ветра. Ночью, в пасмурную погоду, а также при ветре 12 м/с и более поправка равна нулю.
P - Атмосферное давление - приведенное к уровню моря атмосферное давление.
Po - Атмосферное давление - измеренное на уровне метеостанции атмосферное давление.
Tmin - Минимальная температура - минимум температуры воздуха на высоте 2 м над землей.
Tmax - Максимальная температура - максимум температуры воздуха на высоте 2 м над землей.
R - Количество осадков - Количество выпавших осадков за период времени, мм. При наведении курсора мыши на число - период времени, за который выпало указанное количество осадков.
R24 - Количество осадков - Количество выпавших осадков за 24 часа, мм.
S - Снежный покров - Высота снежного покрова, см. При наведении курсора мыши на число - состояние снежного покрова и степень покрытия местности в баллах.